Date String (YYYY-MM-DD hh:mm:ss) UTC,Instrument flags,absolute air pressure of the measurement (hPa),sample flow rate (lpm),inlet stack bypass flow (lpm),air temperature of the measurement (°C),ambient temperature measured by the external sensor (°C),aerosol sample conditioner tube jacket temperature (°C),OPC LED temperature (°C),internal box temperature (°C),relative humidity of the measurement (%),span deviation,mass concentration of particles derived from Lorenz-Mie calculation of OPC scattering (μg/m³),mass concentration of particles derived from Lorenz-Mie calculation of OPC scattering (μg/m³),mass concentration of particles derived from Lorenz-Mie calculation of OPC scattering (μg/m³)
DateTimeUTC,F1_M11,P_M11,Q1_M11,Q2_M11,T1_M11,T2_M11,T3_M11,T4_M11,T5_M11,U1_M11,ZSPAN_M11,X2_M11,X0_M11,X1_M11
2023-12-22 17:00:00,SystemResetWarning,0832.0,5.00,000.00,023.5,022.9,000.0,031.6,024.9,13.9,0000.0,0002.74,0005.48,0002.25
2023-12-22 17:01:00,SystemResetWarning,0831.8,5.01,000.00,023.5,022.9,000.0,031.6,024.9,14.0,0000.0,0002.79,0005.24,0002.32
2023-12-22 17:02:00,SystemResetWarning,0831.8,5.01,000.00,023.5,022.9,000.0,031.6,025.0,14.2,0000.0,0002.87,0005.30,0002.39
2023-12-22 17:03:00,SystemResetWarning,0831.9,5.00,000.00,023.5,022.9,000.0,031.7,025.0,14.0,0000.0,0002.93,0005.37,0002.46
2023-12-22 17:04:00,SystemResetWarning,0831.9,5.00,000.00,023.5,022.9,000.0,031.7,025.0,13.9,0000.0,0002.96,0005.45,0002.52
2023-12-22 17:05:00,SystemResetWarning,0831.8,4.98,000.00,023.6,022.9,000.0,031.7,025.0,13.9,0000.0,0003.03,0006.02,0002.56
2023-12-22 17:06:00,SystemResetWarning,0831.8,4.99,000.00,023.6,022.9,000.0,031.7,025.0,13.9,0000.0,0003.07,0006.14,0002.58
2023-12-22 17:07:00,SystemResetWarning,0832.1,5.02,000.00,023.6,023.0,000.0,031.7,025.0,13.9,0000.0,0003.09,0005.55,0002.59
2023-12-22 17:08:00,SystemResetWarning,0831.7,4.98,000.00,023.6,023.0,000.0,031.7,025.0,13.8,0000.0,0003.11,0005.44,0002.62
2023-12-22 17:09:00,SystemResetWarning,0831.7,5.00,000.00,023.6,023.0,000.0,031.8,025.1,14.0,0000.0,0003.12,0006.06,0002.65
2023-12-22 17:10:00,SystemResetWarning,0831.7,5.01,000.00,023.7,023.0,000.0,031.8,025.1,14.0,0000.0,0003.11,0006.68,0002.66
2023-12-22 17:11:00,SystemResetWarning,0831.7,5.01,000.00,023.7,023.0,000.0,031.8,025.1,13.8,0000.0,0003.09,0006.98,0002.64
2023-12-22 17:12:00,SystemResetWarning,0831.9,5.00,000.00,023.7,023.1,000.0,031.8,025.1,14.0,0000.0,0003.06,0007.03,0002.62
2023-12-22 17:13:00,SystemResetWarning,0832.3,4.99,000.00,023.7,023.1,000.0,031.8,025.1,14.3,0000.0,0003.02,0006.93,0002.63
2023-12-22 17:14:00,SystemResetWarning,0832.1,5.00,000.00,023.7,023.1,000.0,031.8,025.2,14.3,0000.0,0003.00,0006.91,0002.61
2023-12-22 17:15:00,SystemResetWarning,0831.9,5.00,000.00,023.7,023.1,000.0,031.9,025.1,14.2,0000.0,0003.01,0006.88,0002.59
2023-12-22 17:16:00,SystemResetWarning,0831.7,5.00,000.00,023.8,023.1,000.0,031.9,025.2,14.3,0000.0,0003.00,0007.36,0002.60
2023-12-22 17:17:00,SystemResetWarning,0831.8,5.00,000.00,023.8,023.1,000.0,031.9,025.2,14.5,0000.0,0002.96,0007.45,0002.59
2023-12-22 17:18:00,SystemResetWarning,0831.7,5.00,000.00,023.8,023.2,000.0,031.9,025.2,14.4,0000.0,0002.97,0007.45,0002.60
2023-12-22 17:19:00,SystemResetWarning,0831.7,5.00,000.00,023.8,023.2,000.0,031.9,025.3,14.4,0000.0,0003.04,0007.56,0002.61
2023-12-22 17:20:00,SystemResetWarning,0831.7,5.00,000.00,023.8,023.2,000.0,031.9,025.3,14.4,0000.0,0003.06,0007.30,0002.64
2023-12-22 17:21:00,SystemResetWarning,0831.7,5.00,000.00,023.8,023.2,000.0,031.9,025.3,14.2,0000.0,0003.09,0007.59,0002.71
2023-12-22 17:22:00,SystemResetWarning,0831.6,4.99,000.00,023.8,023.2,000.0,032.0,025.3,14.1,0000.0,0003.14,0007.42,0002.77
2023-12-22 17:23:00,SystemResetWarning,0831.6,5.00,000.00,023.9,023.2,000.0,032.0,025.3,14.2,0000.0,0003.17,0007.73,0002.80
2023-12-22 17:24:00,SystemResetWarning,0831.6,5.01,000.00,023.9,023.3,000.0,032.0,025.3,14.3,0000.0,0003.22,0008.44,0002.83
2023-12-22 17:25:00,SystemResetWarning,0831.6,5.01,000.00,023.9,023.3,000.0,032.0,025.3,14.3,0000.0,0003.26,0009.35,0002.88
2023-12-22 17:26:00,SystemResetWarning,0831.6,4.99,000.00,023.9,023.3,000.0,032.0,025.4,14.3,0000.0,0003.30,0009.71,0002.95
2023-12-22 17:27:00,SystemResetWarning,0831.6,4.99,000.00,023.9,023.3,000.0,032.1,025.4,14.3,0000.0,0003.32,0009.26,0002.99
2023-12-22 17:28:00,SystemResetWarning,0831.6,5.01,000.00,024.0,023.3,000.0,032.1,025.4,14.1,0000.0,0003.34,0009.18,0003.03
2023-12-22 17:29:00,SystemResetWarning,0831.6,5.01,000.00,024.0,023.3,000.0,032.1,025.5,14.0,0000.0,0003.37,0010.11,0003.06
2023-12-22 17:30:00,SystemResetWarning,0831.6,4.99,000.00,024.0,023.4,000.0,032.1,025.5,14.0,0000.0,0003.38,0010.83,0003.09
2023-12-22 17:31:00,SystemResetWarning,0831.6,4.99,000.00,024.0,023.4,000.0,032.1,025.5,13.9,0000.0,0003.38,0011.10,0003.09
2023-12-22 17:32:00,SystemResetWarning,0831.5,5.02,000.00,024.0,023.4,000.0,032.1,025.5,13.7,0000.0,0003.39,0010.44,0003.07
2023-12-22 17:33:00,SystemResetWarning,0831.5,4.99,000.00,024.0,023.4,000.0,032.2,025.5,13.5,0000.0,0003.40,0010.96,0003.06
2023-12-22 17:34:00,SystemResetWarning,0831.5,4.99,000.00,024.1,023.4,000.0,032.2,025.5,13.3,0000.0,0003.42,0011.00,0003.08
2023-12-22 17:35:00,SystemResetWarning,0831.4,4.99,000.00,024.1,023.4,000.0,032.2,025.5,13.1,0000.0,0003.40,0010.43,0003.09
2023-12-22 17:36:00,SystemResetWarning,0831.5,5.00,000.00,024.1,023.4,000.0,032.2,025.5,13.3,0000.0,0003.41,0010.01,0003.11
2023-12-22 17:37:00,SystemResetWarning,0831.4,5.01,000.00,024.1,023.5,000.0,032.2,025.6,12.9,0000.0,0003.38,0010.30,0003.10
2023-12-22 17:38:00,SystemResetWarning,0831.4,5.00,000.00,024.1,023.5,000.0,032.2,025.6,12.9,0000.0,0003.36,0010.44,0003.07
2023-12-22 17:39:00,SystemResetWarning,0831.3,4.99,000.00,024.1,023.5,000.0,032.3,025.6,13.1,0000.0,0003.35,0010.60,0003.04
2023-12-22 17:40:00,SystemResetWarning,0831.4,4.98,000.00,024.2,023.5,000.0,032.3,025.6,13.4,0000.0,0003.31,0009.88,0002.97
2023-12-22 17:41:00,SystemResetWarning,0831.4,5.01,000.00,024.2,023.5,000.0,032.3,025.6,13.7,0000.0,0003.23,0009.19,0002.87
2023-12-22 17:42:00,SystemResetWarning,0831.4,5.01,000.00,024.2,023.5,000.0,032.3,025.6,13.6,0000.0,0003.17,0008.69,0002.78
2023-12-22 17:43:00,SystemResetWarning,0831.3,4.98,000.00,024.2,023.6,000.0,032.3,025.7,13.6,0000.0,0003.08,0008.40,0002.66
2023-12-22 17:44:00,SystemResetWarning,0831.3,5.00,000.00,024.2,023.6,000.0,032.3,025.7,13.3,0000.0,0002.92,0007.94,0002.52
2023-12-22 17:45:00,SystemResetWarning,0831.3,5.01,000.00,024.2,023.6,000.0,032.4,025.7,13.0,0000.0,0002.74,0008.17,0002.40
2023-12-22 17:46:00,SystemResetWarning,0831.3,4.99,000.00,024.3,023.6,000.0,032.4,025.7,12.8,0000.0,0002.64,0008.27,0002.32
2023-12-22 17:47:00,SystemResetWarning,0831.3,4.98,000.00,024.3,023.6,000.0,032.4,025.8,12.7,0000.0,0002.57,0007.82,0002.25
2023-12-22 17:48:00,SystemResetWarning,0831.3,5.01,000.00,024.3,023.6,000.0,032.4,025.8,12.7,0000.0,0002.53,0006.65,0002.21
2023-12-22 17:49:00,SystemResetWarning,0831.3,5.01,000.00,024.3,023.7,000.0,032.4,025.9,12.7,0000.0,0002.47,0006.15,0002.19
2023-12-22 17:50:00,SystemResetWarning,0831.3,4.99,000.00,024.3,023.7,000.0,032.5,025.9,12.7,0000.0,0002.41,0005.78,0002.15
2023-12-22 17:51:00,SystemResetWarning,0831.3,4.99,000.00,024.3,023.7,000.0,032.5,025.9,12.7,0000.0,0002.40,0005.55,0002.12
2023-12-22 17:52:00,SystemResetWarning,0831.3,5.01,000.00,024.4,023.7,000.0,032.5,025.9,12.8,0000.0,0002.36,0005.51,0002.10
2023-12-22 17:53:00,SystemResetWarning,0831.2,5.01,000.00,024.4,023.7,000.0,032.5,025.9,13.0,0000.0,0002.31,0006.45,0002.06
2023-12-22 17:54:00,SystemResetWarning,0831.2,5.00,000.00,024.4,023.8,000.0,032.5,025.9,13.3,0000.0,0002.29,0007.17,0002.03
2023-12-22 17:55:00,SystemResetWarning,0831.2,5.00,000.00,024.4,023.8,000.0,032.5,026.0,13.2,0000.0,0002.33,0007.27,0002.04
2023-12-22 17:56:00,SystemResetWarning,0831.2,5.01,000.00,024.5,023.8,000.0,032.6,026.0,13.1,0000.0,0002.33,0006.34,0002.03
2023-12-22 17:57:00,SystemResetWarning,0831.2,4.99,000.00,024.5,023.8,000.0,032.6,026.0,13.3,0000.0,0002.27,0005.57,0001.97
2023-12-22 17:58:00,SystemResetWarning,0831.2,4.99,000.00,024.5,023.9,000.0,032.6,026.0,13.3,0000.0,0002.18,0005.49,0001.89
2023-12-22 17:59:00,SystemResetWarning,0831.2,5.00,000.00,024.5,023.9,000.0,032.6,026.0,13.4,0000.0,0002.09,0005.51,0001.80
